Regional Weather Roundup
Issued by NWS Portland, ME

Current Version | Previous Version | Text Only | Print | Product List | Glossary On
Versions: 1 2 3 4 5 6 7 8 9 10 11 12 13 14 15 16 17 18 19 20 21 22 23 24 25 26 27 28 29 30 31 32 33 34 35 36 37 38 39 40 41 42 43 44 45 46 47 48 49 50
000 ASUS41 KGYX 242010 RWRGYX WEATHER ROUNDUP FOR MAINE AND NEW HAMPSHIRE NATIONAL WEATHER SERVICE GRAY ME 400 PM EDT WED MAY 24 2017 MEZ002-005-006-010-012-015-018-020-021-024-026-027-029-242100- MAINE CITY SKY/WX TMP DP RH WIND PRES REMARKS PORTLAND CLOUDY 60 50 69 SE7 29.80F SANFORD CLOUDY 64 49 57 VRB5 29.80F BAR HARBOR CLOUDY 67 49 52 S9 29.80S WISCASSET CLOUDY 63 51 65 S7 29.81R ROCKLAND CLOUDY 57 50 77 S8 29.81S FRYEBURG PTSUNNY 73 48 41 E7 29.78S LEWISTONAUBURN CLOUDY 70 50 49 S12G17 29.78S AUGUSTA CLOUDY 71 47 42 CALM 29.78F WATERVILLE CLOUDY 71 49 45 CALM 29.76S BANGOR CLOUDY 72 46 39 SE3 29.78S GREENVILLE N/A 69 42 37 N6 29.77F MILLINOCKET CLOUDY 72 42 34 CALM 29.78S HOULTON CLOUDY 70 47 43 N6 29.78R PRESQUE ISLE CLOUDY 69 45 41 E5 29.80R FRENCHVILLE MOSUNNY 65 42 43 N12 29.80F CARIBOU CLOUDY 69 43 38 N6 29.78S $$ NHZ002-005-008-009-011-012-014-242100- NEW HAMPSHIRE CITY SKY/WX TMP DP RH WIND PRES REMARKS PORTSMOUTH PTSUNNY 64 53 65 E8 29.77F ROCHESTER CLOUDY 69 52 54 S7 29.78S NASHUA CLOUDY 72 50 45 SE6 29.77F MANCHESTER PTSUNNY 70 46 42 E8 29.76F CONCORD CLOUDY 72 49 44 VRB7 29.77F LACONIA CLOUDY 71 50 47 E10 29.78S BERLIN CLOUDY 68 47 46 E6 29.78S WHITEFIELD CLOUDY 70 48 45 S5 29.78S JAFFREY CLOUDY 68 50 52 VRB7 29.79F KEENE PTSUNNY 71 49 45 NE8 29.77S LEBANON PTSUNNY 73 49 42 VRB3 29.75F MT WASHINGTON FOG 45 45 100 S2 N/A VSB 3/16 $$ VTZ005-007-008-242100- VERMONT CITY SKY/WX TMP DP RH WIND PRES REMARKS ST JOHNSBURY N/A 73 45 36 MISG 29.73S MONTPELIER CLOUDY 70 49 47 SW7 29.80S BURLINGTON PTSUNNY 77 47 34 VRB3 29.73S $$ MAZ007-012-024-CTZ003-RIZ002-NYZ038-NYZ072-242100- SOUTHERN NEW ENGLAND AND NY CITY SKY/WX TMP DP RH WIND PRES REMARKS BOSTON PTSUNNY 62 51 67 E8 29.79F WORCESTER CLOUDY 66 45 46 NE8 29.80R NANTUCKET CLOUDY 58 50 75 NE17G26 29.76F PROVIDENCE PTSUNNY 68 50 52 E10 29.77R HARTFORD PTSUNNY 74 47 38 E13 29.76R ALBANY PTSUNNY 74 49 41 SE7 29.74S NEW YORK CITY CLOUDY 66 47 50 NE13 29.76R $$ ANZ081-ANZ082-ANZ150-NHZ014-MEZ023>029-242100- COASTAL MARINE OBSERVATIONS STATION/POSITION TIME TEMP WIND PRES WAVE AIR SEA DIR/SP/G HT/PER (UTC) (F) (DEG/KT/KT) (MB) (FT/S) MOUNT DESERT ROC 2000 49 1010.1R ISLE OF SHOALS 1900 54 80/ 5/ 6 1009.1F JEFFREYS LEDGE 1936 52 N/A 3/ 7 CASHES LEDGE BUO 1950 55 52 1009.9R 4/ 7 GEORGES BANK BUO 1850 47 45 1006.9 4/ 7 $$ .............KEY.............. WCI - WIND CHILL TC - TEMPERATURE IN CELSIUS VSB - VISIBILITY IN MILES HX - HEAT INDEX FAIR- INDICATES FEW OR NO CLOUDS BELOW 12,000 FT, WITH NO SIGNIFICANT WEATHER AND/OR OBSTRUCTIONS TO VISIBILITY.

USA.gov is the U.S. government's official web portal to all federal, state and local government web resources and services.